KOSEN 1
1 49402U 21102H   25327.65426637  .00007795  00000-0  33190-3 0  9990
2 49402  97.3495   8.9456 0013998 207.3333 152.7169 15.23164013222699
HO-113
1 50466U 21131B   25327.83407249  .00000629  00000-0  20923-3 0  9991
2 50466  98.5065  56.3505 0004041  10.9962 349.1314 14.41074043205534
SNUGLITE 2
1 52899U 22065F   25327.32064844  .00001436  00000-0  28460-3 0  9995
2 52899  98.1919 107.9657 0006611 316.3998  43.6681 14.63754772180878
UmKA 1 (RS40S)
1 57172U 23091G   25327.75749779  .00006505  00000-0  32423-3 0  9994
2 57172  97.5364  22.3072 0015060 113.0864 247.1959 15.17797449132815
CubeBel-2 (EU11S)
1 57175U 23091K   25327.74137102  .00010612  00000-0  44882-3 0  9993
2 57175  97.5362  24.6134 0012398 115.9058 244.3458 15.23325865132962
SONATE-2
1 59112U 24043Q   25327.34386231  .00029786  00000-0  66061-3 0  9994
2 59112  97.5334 102.8952 0008811 233.2421 126.8018 15.43656302 95985
MO-122
1 60209U 24125G   25327.55757692  .00028828  00000-0  61732-3 0  9996
2 60209  97.2540 177.9364 0013502 254.9763 104.9992 15.44642485 77641
GRBBeta
1 60237U 24128C   25327.67804373  .00004374  00000-0  31504-3 0  9996
2 60237  61.9895 216.2247 0056894  92.7994 267.9612 15.04491909 75326
Curium One
1 60242U 24128H   25327.77317116  .00007879  00000-0  49886-3 0  9992
2 60242  61.9792 211.2078 0056849  89.7379 271.0229 15.08409033 75420
ROBUSTA-3A
1 60243U 24128J   25327.76867095  .00008548  00000-0  54891-3 0  9994
2 60243  61.9863 212.6746 0056658  87.3147 273.4430 15.07814273 75405
CatSat
1 60246U 24125J   25327.56588889  .00033628  00000-0  86216-3 0  9996
2 60246  97.2344 175.1791 0033664 214.8964 145.0075 15.38693771 75572
HYPERVIEW-1G (RS66S)
1 61772U 24199AP  25327.85249383  .00039602  00000-0  81414-3 0  9990
2 61772  97.3224 197.0773 0009541 321.8147  38.2426 15.45828725102691
AO-123
1 61781U 24199AY  25327.85725705  .00009388  00000-0  31120-3 0  9994
2 61781  97.3261 193.5195 0014091 330.6505  29.3943 15.31394647102458
ZIMSAT 2
1 61783U 24199BA  25327.85118854  .00142470  00000-0  14218-2 0  9995
2 61783  97.3125 199.9934 0005004 324.7872  35.3056 15.65168546106040
HADES-R (SO-124)
1 62690U 25009CK  25327.20675523  .00129085  00000-0  21087-2 0  9993
2 62690  97.3908  49.1802 0002720 233.5173 126.5829 15.52093508 47743
HYDRA-T
1 62692U 25009CM  25327.20343764  .00143593  00000-0  22455-2 0  9994
2 62692  97.3907  49.3370 0002477 234.3839 125.7184 15.53258688 47752
JINJUSat 1B
1 63210U 25052A   25327.64117308  .00015314  00000-0  60067-3 0  9991
2 63210  97.4204 219.9275 0006144  88.6449 271.5493 15.25820197 38674
NUSHSAT 1
1 63211U 25052B   25327.64873128  .00017547  00000-0  66905-3 0  9998
2 63211  97.4192 220.0321 0006048  90.6904 269.5028 15.26733863 38684
TEVEL2-4
1 63213U 25052D   25327.64163377  .00016340  00000-0  63487-3 0  9990
2 63213  97.4108 219.6158 0005005  99.6849 260.4955 15.26128201 38676
TEVEL2-5
1 63214U 25052E   25327.64622205  .00016408  00000-0  63871-3 0  9993
2 63214  97.4108 219.6105 0004987 100.5992 259.5808 15.26064351 38679
TEVEL2-6
1 63215U 25052F   25327.65293678  .00016513  00000-0  64372-3 0  9997
2 63215  97.4107 219.6062 0005044 101.2624 258.9181 15.26016091 38671
TEVEL2-1
1 63217U 25052H   25327.69165948  .00015640  00000-0  61554-3 0  9990
2 63217  97.4082 219.4714 0004925 109.7984 250.3786 15.25709489 38672
TEVEL2-3
1 63218U 25052J   25327.69111230  .00015543  00000-0  61143-3 0  9992
2 63218  97.4087 219.4748 0004943 110.6132 249.5637 15.25727266 38679
TEVEL2-2
1 63219U 25052K   25327.69244178  .00015527  00000-0  61112-3 0  9999
2 63219  97.4085 219.4720 0004904 110.9868 249.1895 15.25709636 38677
TEVEL2-9
1 63237U 25052AD  25327.70274169  .00014855  00000-0  61022-3 0  9997
2 63237  97.4147 219.2153 0008212 134.3151 225.8761 15.24263766 38643
TEVEL2-7
1 63238U 25052AE  25327.64921301  .00015166  00000-0  62548-3 0  9998
2 63238  97.4151 219.1400 0008226 134.2950 225.8963 15.24124829 38633
TEVEL2-8
1 63239U 25052AF  25327.65451941  .00015106  00000-0  62351-3 0  9994
2 63239  97.4151 219.1305 0008208 135.1769 225.0133 15.24097475 38633
HYDRA-W
1 63490U 25052BL  25327.65884644  .00054143  00000-0  14362-2 0  9995
2 63490  97.4074 221.2152 0010575 120.6566 239.5723 15.38074356 38783
HADES-ICM (SO-125)
1 63492U 25052BN  25327.69696303  .00047077  00000-0  13156-2 0  9992
2 63492  97.4084 221.0335 0010587 125.2062 235.0175 15.36490412 38776
Dragonfly
1 65729U 98067XH  25327.17694853  .00129782  00000-0  12573-2 0  9990
2 65729  51.6276 235.4085 0006017 168.3980 191.7155 15.65438828 10093
RSP-03
1 65732U 98067XL  25327.14572961  .00105203  00000-0  11062-2 0  9990
2 65732  51.6289 235.9525 0006848 146.5146 213.6282 15.63463384 10097
GHS-01
1 65733U 98067XM  25327.15431610  .00155021  00000-0  14104-2 0  9990
2 65733  51.6299 235.2617 0006564 167.3148 192.8014 15.66905655 10100
BOTAN
1 65942U 98067XP  25327.12196983  .00078973  00000-0  10128-2 0  9992
2 65942  51.6299 238.0444 0004694 122.4303 237.7144 15.58437580  6801
CEVROSAT1
1 98526U 25248E   25313.13142326  .00000000  00000-0  19360-3 0    02
2 98526  45.4084 218.4764 0001315 254.8982 242.1062 15.17981583    02
